CAPE
0 0 0 0 0 45 24 116 374 444 471 424 143 46 3 49 0 112 332 0 12 591 132 31 523 847 621 357 380 314 325 349 410 343 301 314 318 268 287 315 535 812 823 434 39 0 0 0 0
0 0 0 0 0 33 65 112 366 471 545 452 188 130 100 43 226 603 255 0 107 614 184 14 531 937 762 381 364 345 432 307 196 200 265 321 270 253 265 468 702 700 407 96 0 0 0 0 0
0 0 0 0 0 9 33 210 332 453 352 457 528 248 5 0 133 530 60 0 368 730 97 102 509 1025 961 565 539 551 512 379 380 370 344 225 255 206 224 433 604 428 134 45 20 0 0 0 0
0 0 0 0 0 21 0 69 228 332 448 336 328 61 0 71 333 253 2 0 390 636 203 575 707 954 944 682 713 713 680 653 528 381 243 177 181 78 101 263 268 71 48 38 23 0 0 0 39
0 0 0 0 0 0 168 157 240 226 187 200 258 212 70 487 598 342 168 26 253 442 394 344 645 742 782 734 722 722 631 530 516 467 298 288 130 7 57 239 118 48 45 36 0 0 4 26 4
0 0 2 3 0 0 19 221 245 175 156 268 261 190 280 405 710 587 423 266 340 202 461 189 421 652 713 752 737 683 618 672 702 551 327 305 95 25 48 232 180 127 111 148 61 35 8 0 0
0 0 36 0 0 0 0 61 152 224 207 290 190 137 413 261 593 509 104 38 59 133 510 898 95 330 683 794 825 730 774 749 649 476 270 206 78 31 44 184 250 266 342 229 62 0 0 0 0
0 0 7 8 0 0 0 13 39 149 162 436 355 308 501 372 610 173 0 0 0 89 377 853 666 154 181 490 874 863 800 752 611 457 247 132 38 34 69 133 217 552 511 119 24 0 0 0 0
0 0 11 44 0 0 0 0 56 224 271 312 383 249 537 526 482 42 0 0 0 55 223 405 449 359 212 148 652 787 864 849 681 300 106 28 29 137 352 243 490 524 165 39 0 0 0 0 0
0 0 10 20 0 0 0 0 0 176 365 364 355 497 565 483 337 5 0 0 0 24 116 302 458 393 314 192 534 626 584 369 271 97 235 58 81 220 133 372 302 90 6 0 0 0 0 0 0
0 0 0 0 0 0 0 0 3 80 130 319 455 629 513 398 281 0 0 0 0 1 19 105 392 573 345 270 412 480 429 355 441 463 398 211 221 166 33 239 99 116 0 19 0 0 0 0 0
0 0 0 0 0 0 0 0 0 4 80 422 414 666 577 337 179 70 1 0 0 0 28 108 333 649 512 301 328 317 293 298 279 288 503 405 234 142 131 97 61 43 0 0 0 0 0 0 0
0 0 0 0 0 0 0 0 0 0 104 291 429 682 709 571 154 81 34 13 25 60 247 187 235 527 611 758 305 238 242 214 174 388 336 128 91 192 137 80 37 3 0 0 0 0 0 0 0
0 0 0 0 0 0 0 0 1 0 11 165 380 546 785 863 436 255 233 264 284 396 591 517 437 597 563 648 374 337 398 259 420 176 170 219 119 244 103 61 2 0 0 0 0 0 0 0 0
0 0 0 0 0 0 0 0 0 0 79 128 255 489 644 857 722 559 595 677 783 1002 1256 1203 787 670 713 549 560 412 356 204 208 197 347 103 180 232 65 30 3 1 0 0 0 0 0 0 0
0 0 0 0 0 0 0 0 0 0 0 1 91 267 523 653 838 823 859 930 1109 1427 1733 1954 1342 835 912 549 556 347 354 320 284 244 150 95 105 67 26 4 0 0 0 0 0 0 0 0 0
0 0 0 0 0 0 0 0 0 0 0 0 0 17 266 559 796 1103 1002 1185 1325 1599 1768 2038 1935 1255 1088 909 570 498 478 430 359 194 67 46 7 0 3 0 0 0 0 0 0 0 0 0 0
0 0 0 0 0 0 0 0 0 0 0 0 0 0 19 279 608 977 1199 938 988 1275 1735 1931 1923 1858 1510 1123 761 520 534 448 311 111 42 7 0 0 0 0 0 0 0 0 0 0 0 0 0
0 0 0 0 0 0 0 0 0 0 0 0 0 0 0 181 624 941 1224 1264 1040 895 754 1285 1830 2049 1749 1183 792 466 418 324 171 61 0 0 0 0 0 0 0 0 0 0 0 0 0 0 0
0 0 0 0 0 0 0 0 0 0 0 6 1 0 5 198 695 1350 1593 1682 1468 1352 1163 1109 1189 1651 1565 1142 812 728 688 426 237 47 12 0 0 0 0 0 0 0 0 1 4 2 0 0 0
0 0 0 0 0 0 0 0 0 0 5 212 137 16 136 271 772 1269 1492 1657 1671 1549 1447 1349 1336 1444 1322 1157 1039 724 462 273 139 59 0 0 0 0 0 0 0 0 0 0 0 0 0 0 0
0 0 0 0 0 0 0 0 0 0 0 17 233 170 88 246 496 1102 1363 1503 1550 1587 1481 1427 1386 1373 1304 1138 802 677 555 373 278 152 1 0 0 0 0 0 0 0 0 0 0 0 0 0 0
0 0 0 0 0 0 0 0 0 0 0 0 174 597 465 486 652 1064 1233 1334 1283 1094 1334 1307 1283 1148 974 894 807 743 742 738 177 0 0 0 0 0 0 0 0 0 0 0 0 0 3 2 2
0 0 0 0 0 0 0 0 0 0 0 0 149 577 827 828 911 1044 1202 813 973 1170 1229 1202 1211 1101 970 935 957 956 584 69 5 0 0 0 0 0 0 0 0 0 0 0 0 3 9 8 0
0 0 0 0 0 0 0 0 0 0 0 0 0 16 370 874 887 1036 731 593 1010 1080 1095 1153 1072 896 876 802 702 615 213 22 0 0 0 0 0 0 0 0 0 0 0 0 0 3 1 0 0
0 0 0 0 0 0 0 0 0 0 0 0 0 85 231 708 831 991 721 773 943 1068 1032 805 792 555 407 230 38 1 0 0 0 0 0 0 0 0 0 0 0 0 0 1 5 0 0 0 3
0 0 0 0 0 0 0 0 0 0 0 0 0 135 398 732 799 951 772 692 786 834 595 542 434 167 28 0 0 0 0 0 0 0 0 0 0 0 0 0 0 0 1 1 3 0 0 6 12
0 0 0 0 0 0 0 0 0 0 0 0 0 12 450 797 879 1017 823 620 723 551 410 265 92 3 0 0 0 0 0 0 0 0 0 0 0 0 0 0 0 0 1 2 6 6 13 19 21
0 0 0 0 0 0 0 0 0 0 0 0 0 0 190 986 1016 1015 896 489 718 419 171 63 0 0 0 0 0 0 0 0 0 0 0 0 0 0 0 0 0 0 0 4 14 19 21 19 21
0 0 0 0 0 0 0 0 0 0 0 0 0 0 393 1001 1018 1016 761 553 577 245 64 0 0 0 0 0 0 0 0 0 0 0 0 0 0 0 0 0 0 0 1 5 13 15 14 17 20
CIN
0 0 0 0 0 -13 -7 -20 -63 -19 -22 -47 -87 -116 -23 -106 0 -20 -178 0 -49 -62 -202 -325 -165 -114 -137 -181 -165 -162 -149 -161 -160 -175 -174 -166 -157 -150 -145 -137 -93 -59 -54 -87 -183 0 0 0 0
0 0 0 0 0 -4 -4 -30 -34 -30 -46 -61 -88 -109 -110 -107 -116 -117 -188 0 -249 -66 -176 -364 -168 -111 -122 -170 -165 -165 -147 -178 -195 -188 -180 -162 -161 -156 -151 -99 -65 -60 -85 -141 0 0 0 0 0
0 0 0 0 0 -5 -7 -31 -28 -45 -97 -68 -32 -87 -14 0 -198 -107 -263 0 -123 -67 -197 -205 -175 -93 -96 -145 -145 -140 -142 -163 -159 -154 -146 -162 -145 -162 -153 -102 -71 -81 -130 -158 -154 0 0 0 0
0 0 0 0 0 -32 0 -55 -50 -51 -75 -89 -66 -114 -4 -192 -153 -165 -122 0 -112 -59 -119 -157 -131 -96 -99 -133 -121 -113 -111 -112 -139 -162 -178 -191 -180 -231 -187 -137 -122 -153 -173 -181 -218 0 0 0 -224
0 0 0 0 0 0 -40 -58 -57 -53 -50 -44 -62 -25 -96 -133 -144 -179 -196 -230 -100 -56 -71 -178 -146 -126 -125 -134 -124 -122 -133 -154 -153 -137 -156 -156 -191 -59 -189 -136 -163 -196 -207 -216 0 0 -69 -259 -71
0 0 -2 -6 0 0 -24 -63 -51 -69 -63 -39 -31 -44 -56 -138 -107 -117 -110 -94 -45 -78 -42 -149 -184 -144 -129 -123 -130 -135 -134 -123 -110 -122 -142 -142 -193 -226 -197 -139 -147 -180 -194 -184 -228 -259 -142 0 0
0 0 -5 0 0 0 0 -111 -90 -51 -54 -46 -54 -46 -54 -125 -100 -95 -144 -164 -145 -110 -44 -65 -206 -185 -142 -129 -121 -124 -112 -119 -126 -135 -169 -171 -198 -214 -203 -159 -157 -161 -154 -190 -248 0 0 0 0
0 0 -9 -13 0 0 0 -99 -129 -116 -61 -85 -71 -27 -9 -113 -121 -153 0 0 0 -120 -53 -38 -69 -134 -147 -120 -112 -107 -114 -117 -133 -146 -168 -205 -221 -229 -195 -185 -165 -116 -128 -232 -286 0 0 0 0
0 0 -7 -3 -1 0 0 0 -105 -148 -95 -102 -92 -89 -65 -143 -170 -198 0 0 0 -149 -73 -36 -45 -59 -115 -86 -93 -127 -112 -113 -129 -163 -203 -208 -172 -97 -84 -123 -121 -133 -222 -291 0 0 0 0 0
0 0 -5 -9 0 0 0 0 0 -83 -72 -85 -91 -99 -112 -180 -195 -55 0 0 0 -184 -122 -69 -56 -35 -55 -63 -44 -72 -62 -86 -102 -111 -100 -154 -112 -84 -118 -114 -174 -259 -326 0 0 0 0 0 0
0 0 0 0 0 0 0 0 -86 -76 -33 -30 -39 -62 -130 -152 -176 0 0 0 0 -11 -140 -106 -83 -74 -59 -77 -68 -62 -67 -74 -85 -96 -107 -114 -100 -125 -171 -99 -158 -160 0 -124 0 0 0 0 0
0 0 0 0 0 0 0 0 0 -45 -39 -105 -58 -62 -96 -130 -139 -138 -67 0 0 0 -154 -110 -81 -89 -87 -75 -84 -80 -96 -93 -106 -110 -130 -124 -138 -150 -125 -105 -124 -147 0 0 0 0 0 0 0
0 0 0 0 0 0 0 0 0 0 -67 -107 -85 -83 -83 -100 -115 -130 -118 -131 -128 -113 -104 -136 -120 -116 -127 -123 -123 -137 -157 -159 -143 -134 -146 -173 -151 -134 -141 -152 -140 -112 0 0 0 0 0 0 0
0 0 0 0 0 0 0 0 -85 0 -60 -81 -118 -89 -81 -81 -85 -101 -123 -105 -110 -101 -76 -96 -115 -151 -158 -156 -169 -159 -164 -151 -141 -160 -169 -193 -165 -149 -160 -177 -89 0 0 0 0 0 0 0 0
0 0 0 0 0 0 0 0 0 -1 -78 -54 -70 -99 -78 -78 -77 -85 -80 -107 -96 -83 -73 -82 -107 -141 -179 -192 -190 -186 -163 -171 -175 -169 -206 -233 -195 -186 -204 -245 -224 -56 0 0 0 0 0 0 0
0 0 0 0 0 0 0 0 0 0 0 -24 -39 -55 -91 -89 -75 -64 -66 -69 -88 -78 -67 -87 -96 -145 -193 -185 -198 -184 -167 -164 -158 -185 -227 -254 -249 -261 -248 -180 0 0 0 0 0 0 0 0 0
0 0 0 0 0 0 0 0 0 0 0 0 0 -35 -55 -78 -89 -86 -89 -93 -93 -88 -85 -74 -101 -94 -147 -195 -200 -206 -200 -184 -173 -204 -249 -297 -252 0 -119 0 0 0 0 0 0 0 0 0 0
0 0 0 0 0 0 0 0 0 0 0 0 0 0 -42 -49 -79 -113 -136 -139 -148 -136 -122 -101 -108 -112 -142 -167 -209 -205 -211 -203 -211 -241 -269 -295 0 0 0 0 0 0 0 0 0 0 0 0 0
0 0 0 0 0 0 0 0 0 0 0 0 0 0 0 -54 -77 -125 -204 -244 -261 -239 -265 -212 -144 -138 -165 -189 -205 -234 -229 -225 -247 -284 0 0 0 0 0 0 0 0 0 0 0 0 0 0 0
0 0 0 0 0 0 0 0 0 0 0 -15 -25 0 -46 -59 -102 -276 -303 -309 -283 -256 -284 -300 -262 -231 -236 -227 -222 -182 -174 -208 -224 -314 -352 0 0 0 0 0 0 0 0 -1 0 -1 0 0 0
0 0 0 0 0 0 0 0 0 0 -23 -45 -114 -113 -75 -92 -138 -277 -344 -313 -297 -291 -308 -320 -315 -311 -286 -237 -227 -259 -279 -273 -287 -316 -12 0 0 0 0 0 0 0 0 0 0 0 0 0 0
0 0 0 0 0 0 0 0 0 0 0 -25 -41 -83 -111 -146 -182 -211 -364 -363 -341 -316 -337 -338 -337 -314 -286 -267 -273 -270 -219 -200 -182 -204 -22 0 0 0 0 0 0 0 0 0 0 0 0 -1 0
0 0 0 0 0 0 0 0 0 0 0 0 -33 -64 -104 -152 -173 -262 -349 -407 -434 -476 -358 -345 -331 -336 -349 -303 -261 -229 -150 -125 -239 0 0 0 0 0 0 0 0 0 0 0 0 0 0 -2 -2
0 0 0 0 0 0 0 0 0 0 0 0 -46 -84 -145 -175 -227 -300 -407 -601 -503 -379 -343 -335 -292 -303 -307 -258 -205 -154 -193 -324 -206 0 0 0 0 0 0 0 0 0 0 0 0 -1 -1 -1 0
0 0 0 0 0 0 0 0 0 0 0 0 0 -41 -102 -179 -224 -311 -591 -608 -433 -362 -330 -291 -306 -317 -284 -254 -234 -207 -284 -362 -99 0 0 0 0 0 0 0 0 0 0 0 0 -1 0 0 0
0 0 0 0 0 0 0 0 0 0 0 0 0 -87 -102 -131 -203 -302 -485 -448 -352 -290 -288 -338 -337 -391 -397 -426 -491 -24 0 0 0 0 0 0 0 0 0 0 0 0 0 0 -1 0 0 -1 -1
0 0 0 0 0 0 0 0 0 0 0 0 0 -60 -72 -136 -204 -312 -395 -382 -299 -294 -370 -374 -407 -503 -519 0 0 0 0 0 0 0 0 0 0 0 0 0 0 0 0 -1 -1 0 0 -1 -2
0 0 0 0 0 0 0 0 0 0 0 0 0 -9 -40 -201 -230 -273 -360 -399 -311 -356 -403 -437 -518 -167 0 0 0 0 0 0 0 0 0 0 0 0 0 0 0 0 -1 -1 -1 -2 -1 -1 -2
0 0 0 0 0 0 0 0 0 0 0 0 0 0 -34 -165 -230 -283 -321 -441 -313 -394 -481 -537 0 0 0 0 0 0 0 0 0 0 0 0 0 0 0 0 0 0 0 -2 -1 -2 -1 -2 -1
0 0 0 0 0 0 0 0 0 0 0 0 0 0 -40 -117 -225 -277 -373 -425 -372 -466 -531 0 0 0 0 0 0 0 0 0 0 0 0 0 0 0 0 0 0 0 -2 -1 -1 -1 -2 -1 -2
Wind_Speed
16 13 14 10 14 14 17 15 15 14 15 16 16 16 17 19 17 18 16 17 20 22 23 25 25 24 23 21 20 18 19 18 18 18 17 17 17 17 17 16 16 16 17 17 18 18 18 18 19
17 16 14 16 17 14 15 14 15 15 16 17 15 16 17 18 18 15 13 15 20 20 21 22 24 24 22 21 21 21 20 18 17 17 17 17 16 16 16 15 16 16 16 16 17 17 18 18 19
18 18 16 16 17 18 15 14 15 15 15 16 16 17 18 18 18 13 14 17 19 18 18 18 22 22 21 21 21 20 17 16 16 16 15 15 15 15 15 15 15 15 16 16 16 17 18 19 19
19 15 13 16 18 16 13 14 14 16 16 17 19 17 16 18 15 14 15 18 17 17 17 16 19 20 20 19 19 15 15 14 14 13 13 13 13 13 14 14 14 15 15 15 16 17 17 18 19
21 17 13 14 17 15 13 13 13 16 19 19 13 15 16 16 16 14 14 16 16 15 15 15 17 19 18 16 15 14 14 13 11 11 12 12 12 13 13 13 14 14 14 15 15 16 17 18 18
18 16 7 11 15 15 14 12 13 15 18 20 16 13 14 15 13 12 14 16 16 16 15 15 15 18 16 14 14 14 12 10 11 12 11 11 11 12 12 12 13 13 13 14 15 16 17 18 19
2 12 10 13 12 12 16 15 11 14 15 15 16 14 16 12 12 10 14 15 16 17 18 15 19 19 15 15 14 13 11 10 10 10 10 10 10 10 11 11 11 12 12 13 15 16 17 19 21
24 11 6 8 8 12 16 16 15 12 16 15 13 15 15 14 14 12 13 17 19 19 18 17 18 17 18 15 15 13 10 9 8 8 9 9 9 9 9 9 9 11 12 13 15 16 18 20 22
17 2 1 6 6 11 14 16 16 15 11 10 12 14 15 14 15 15 14 19 20 17 15 15 16 17 17 15 13 12 9 7 7 8 8 8 8 8 8 11 13 11 12 14 16 18 19 20 20
9 6 0 12 12 11 17 18 19 12 11 9 10 12 13 16 16 18 18 19 21 17 16 15 16 16 15 11 9 11 9 9 8 7 7 7 7 8 10 13 12 13 15 16 18 19 20 20 24
8 11 5 4 11 19 18 18 14 11 8 9 11 14 14 16 17 20 21 21 21 19 17 18 17 15 14 11 10 10 10 9 7 7 7 7 9 9 8 11 11 13 14 14 18 20 22 26 28
5 8 6 4 13 12 6 21 17 6 5 13 12 13 14 11 15 18 22 21 21 20 20 19 16 13 12 8 9 8 7 7 7 7 7 8 7 10 12 13 14 15 18 21 22 24 26 28 31
8 7 2 3 2 3 24 15 22 25 10 9 11 12 12 11 13 18 22 22 22 21 21 20 16 13 11 12 11 8 7 7 7 7 7 7 6 9 11 15 17 19 20 22 25 26 29 31 29
12 5 7 4 5 5 24 22 23 16 5 7 8 9 10 9 14 17 19 23 22 21 20 20 18 14 11 10 11 9 8 7 6 6 6 8 9 11 12 14 18 19 23 25 28 29 29 29 30
6 4 7 11 9 13 17 26 25 11 12 4 8 10 9 7 15 19 18 19 20 20 20 17 17 14 12 12 11 10 8 7 6 6 7 7 9 11 14 18 21 22 24 26 29 28 28 29 31
4 4 5 10 2 4 5 18 7 11 23 24 12 12 11 8 14 16 20 20 21 21 16 15 15 14 14 12 10 8 6 5 5 6 8 8 11 13 16 18 21 23 25 26 27 28 30 32 33
5 3 5 5 4 5 11 24 24 15 26 30 25 19 16 3 4 12 20 19 15 15 15 13 13 13 13 11 8 6 5 4 5 7 9 9 12 15 18 20 22 24 25 25 27 29 31 34 34
9 6 4 2 5 4 22 27 31 30 30 32 30 32 25 15 6 9 13 16 12 9 9 10 9 11 9 6 4 3 5 6 7 8 10 11 13 16 18 20 23 24 23 26 27 30 32 33 35
14 11 10 10 10 28 30 30 31 33 32 34 33 34 36 13 15 12 8 4 5 5 2 5 6 6 6 4 2 1 5 7 10 11 11 12 14 16 17 21 23 22 24 27 28 30 33 34 33
9 12 11 15 17 5 30 31 30 32 32 31 31 28 17 6 9 9 11 8 5 3 2 2 3 3 2 2 2 4 6 8 10 11 11 13 15 17 20 20 22 22 25 25 27 30 32 32 31
11 18 17 17 24 24 31 32 31 18 26 26 26 27 1 11 8 11 14 10 8 7 6 5 2 2 2 4 5 6 8 10 11 11 12 15 17 19 20 21 22 23 23 25 28 29 29 31 30
22 18 16 16 13 23 14 30 11 14 24 17 17 7 5 10 20 12 14 16 14 11 8 6 6 3 4 4 4 4 7 8 9 11 13 16 17 19 20 21 22 23 25 26 26 25 27 27 30
20 18 16 19 20 27 31 25 31 16 26 22 17 13 11 12 13 11 8 9 7 6 4 5 4 4 5 6 6 6 8 11 11 12 14 17 19 19 20 21 22 24 24 25 25 25 26 26 26
19 16 18 20 20 18 22 30 27 21 20 22 17 19 20 21 17 11 9 9 5 3 3 3 3 5 7 8 8 9 10 11 12 13 15 17 19 19 21 22 23 23 24 23 24 24 23 25 24
16 19 22 18 14 22 16 20 28 29 23 25 27 24 24 22 18 12 10 8 6 5 4 4 5 6 8 9 10 10 11 12 13 14 17 18 19 20 21 22 23 23 22 22 23 23 23 22 24
16 19 24 26 25 22 12 22 21 18 24 27 27 25 25 19 16 13 11 8 5 5 5 5 4 7 8 9 10 10 11 13 14 16 18 19 20 20 21 22 21 21 21 21 21 20 22 22 23
21 23 24 31 28 30 27 21 20 19 20 22 23 23 22 19 14 10 8 6 3 2 2 3 5 7 7 8 9 10 12 13 15 17 19 20 21 21 20 20 21 21 21 21 21 21 22 23 24
21 19 20 22 32 35 28 23 22 19 23 23 23 25 24 18 11 8 5 3 1 1 1 5 5 6 6 7 8 10 11 13 15 18 19 20 20 19 19 20 20 21 21 22 22 22 23 24 25
14 21 22 26 27 32 34 27 20 21 23 25 28 28 25 14 9 4 2 2 2 0 2 4 4 5 6 6 8 10 12 14 16 18 18 19 19 19 20 20 20 21 22 22 22 23 23 25 26
26 28 21 27 28 27 33 35 29 29 31 28 31 30 24 15 7 3 1 3 2 2 3 3 3 4 5 6 8 10 12 14 16 17 18 18 20 20 20 20 21 22 23 23 22 23 26 27 28
Wind_Direction
3 45 13 47 8 11 356 352 339 0 1 10 41 40 34 21 32 352 70 101 112 118 121 128 129 127 120 114 106 101 100 95 89 88 82 78 75 73 66 58 50 38 32 35 35 32 24 17 12
307 334 1 340 342 345 354 3 349 349 358 348 6 10 16 11 7 8 59 99 115 116 119 124 129 128 122 117 117 117 111 99 89 87 85 85 78 70 61 52 41 35 35 31 25 19 13 9 5
295 294 338 341 341 329 342 7 0 4 3 5 357 350 357 3 358 30 51 105 113 114 117 119 129 127 122 123 125 120 105 94 89 87 83 74 72 60 46 36 33 35 38 34 27 22 18 14 10
298 329 347 348 339 352 358 2 9 7 11 356 335 338 1 5 20 23 81 104 111 116 117 116 125 127 126 123 122 107 102 92 89 83 77 76 69 52 46 45 45 41 38 34 29 24 19 14 10
284 316 346 350 348 353 359 5 17 7 357 0 9 352 355 17 18 51 82 105 113 114 116 118 125 128 128 120 115 110 108 99 78 74 79 74 58 50 49 47 45 43 39 32 26 22 17 12 9
304 317 31 1 356 357 0 11 15 10 8 13 18 12 20 15 26 44 88 111 113 116 116 117 124 132 127 120 118 117 110 86 84 85 76 57 48 47 49 45 43 40 31 26 22 17 12 6 360
111 333 343 343 9 21 357 2 23 15 21 32 62 41 2 37 27 45 92 101 112 120 123 118 135 138 129 128 125 119 106 96 89 75 62 49 43 47 45 44 40 33 26 21 14 10 4 357 350
269 328 353 359 35 9 354 1 1 29 5 20 90 23 28 78 75 73 91 113 123 126 129 128 132 135 140 134 136 125 110 98 76 61 49 50 52 45 49 48 39 25 19 12 7 4 360 355 349
292 129 121 359 34 5 353 349 8 19 59 61 54 36 41 71 84 94 99 121 126 123 123 123 128 133 139 133 125 125 107 73 53 68 71 59 68 49 45 10 3 16 9 1 357 357 355 351 346
157 168 353 327 331 343 332 335 342 33 67 85 81 46 60 88 93 106 113 122 132 125 126 125 130 131 127 109 91 117 100 109 90 78 62 81 50 28 8 360 2 356 355 354 350 350 349 349 344
151 180 329 5 321 306 326 330 349 25 126 84 109 96 90 97 107 121 124 126 131 128 125 131 129 124 120 103 93 98 101 97 78 72 50 34 17 14 7 1 0 354 355 352 349 347 346 343 340
151 170 168 322 322 324 141 309 208 26 322 7 67 93 106 95 111 120 137 129 127 126 129 127 120 113 108 78 92 81 70 62 42 42 30 22 34 4 354 353 351 350 347 343 343 342 341 339 336
166 160 132 175 321 346 291 194 236 250 3 31 54 91 107 101 112 123 134 128 120 120 129 129 119 111 103 116 105 78 26 34 49 52 40 26 28 8 358 350 346 343 343 343 340 339 338 336 339
344 167 174 166 174 312 213 219 281 332 4 122 62 105 114 115 134 137 138 152 145 136 134 136 132 117 109 109 119 99 96 82 80 54 46 13 4 359 358 354 346 342 339 339 338 336 337 337 337
9 17 166 181 177 182 292 217 210 321 345 25 133 137 136 125 147 153 146 147 151 150 149 134 136 129 128 131 128 133 108 100 76 52 25 17 5 356 349 343 342 339 339 338 336 336 336 337 337
70 46 150 165 109 25 123 194 159 319 273 268 166 165 160 153 157 158 162 159 163 166 147 144 148 143 150 148 134 127 108 89 57 31 16 6 356 349 343 341 339 340 338 336 337 336 337 336 335
57 95 135 111 15 6 162 214 279 318 264 245 221 199 181 255 186 159 168 166 158 160 159 153 159 162 161 158 143 131 101 95 43 17 9 4 355 348 343 342 341 340 338 339 339 337 337 335 334
350 18 13 117 38 162 209 219 237 251 259 243 238 235 205 276 259 170 166 168 161 157 155 161 158 168 162 144 135 82 24 21 20 16 7 2 355 349 346 344 342 341 341 340 340 337 336 335 333
329 341 345 343 340 236 231 234 236 239 262 249 247 241 234 274 280 276 276 254 175 168 170 164 161 156 155 144 118 39 0 6 4 4 4 1 356 353 348 343 341 342 340 340 339 338 337 335 337
333 325 329 329 323 292 243 249 242 246 251 255 253 223 171 270 287 285 284 285 273 265 257 244 184 163 143 49 32 14 8 4 4 9 8 3 358 351 345 345 344 346 343 342 341 339 338 338 341
311 306 314 321 293 228 252 253 240 300 262 246 231 216 112 289 284 290 286 288 296 298 299 300 306 347 65 21 32 22 17 7 360 5 4 1 354 348 348 348 347 346 346 343 341 341 341 339 341
297 309 312 320 330 294 310 268 312 305 270 315 294 330 183 305 282 297 291 287 294 304 313 318 319 352 15 51 46 33 7 6 12 9 5 360 357 354 352 352 350 348 345 343 344 346 344 343 341
299 308 310 311 307 287 269 286 259 308 280 293 300 310 325 315 301 306 315 312 315 321 337 348 356 11 20 31 33 22 12 9 11 10 9 6 2 358 357 355 351 349 348 347 347 346 346 346 346
304 307 305 302 302 296 289 272 281 294 305 301 312 304 301 296 301 308 316 326 331 345 346 2 1 3 9 10 7 9 3 7 7 8 7 4 0 360 357 355 353 352 351 351 351 351 351 349 352
296 297 297 298 292 295 300 292 281 282 299 300 297 299 298 298 299 298 305 310 313 314 320 329 335 346 353 6 5 5 3 2 9 8 3 0 358 358 356 356 355 355 355 354 353 352 352 355 354
292 289 288 291 292 299 311 299 303 305 298 300 304 304 302 304 301 297 298 300 303 305 307 316 335 348 357 3 5 15 16 7 8 2 3 359 357 357 357 357 358 358 355 354 354 353 353 353 351
281 286 289 285 290 287 294 308 315 308 314 314 311 314 311 310 309 300 295 295 300 323 322 337 339 352 3 8 13 12 10 12 5 360 356 357 357 358 359 360 359 357 355 353 352 350 348 347 345
284 304 290 286 282 279 293 297 302 315 314 321 320 319 314 318 320 312 294 271 289 94 27 328 343 4 15 14 20 17 12 8 4 359 357 355 357 359 0 359 359 357 354 353 351 349 347 344 342
300 286 289 291 290 286 285 293 310 310 315 313 313 321 324 332 331 333 298 198 150 102 334 336 353 19 15 22 14 16 10 4 359 357 357 357 359 359 360 358 356 353 351 349 348 347 345 343 342
290 287 290 285 288 290 288 285 297 294 300 307 306 314 323 338 343 348 339 160 190 283 319 335 0 4 12 14 15 12 8 3 360 358 357 359 358 359 357 355 353 350 347 348 347 346 345 344 343